NSS-9

Last updated on Jan. 15, 2021, 6:30 a.m. UTC

1 33749U 09008A   21014.84586385  .00000065  00000-0  00000-0 0  9999
2 33749   0.0443 295.6060 0001895   1.2307 305.2260  1.00271761 43687
UTC
Height (km)
Latitude
Longitude
Inclination
Orbital Period
UTC large
Height (km)
Speed (km/s)
/
Latitude / Longitude
Inclination (degrees)
Orbital Period (minutes)
Azimuth
Elevation
Range (km)
Doppler Factor
iOS Compass Heading
iOS Angle

Next 30 passes for location: Hong Kong

Rise time Rise Azimuth (degrees) Set time Set Azimuth (degrees) Duration Max altitude (degrees)

No matching passes for this satellites